Vertical_Velocity
-0 -0 0 0 0 0 -0 0 -0 -1 -1 -1 -1 -0 -1 -1 -1 -1 0 -0 -1 1 1 -0 -0 0 -2 -3 -2 -1 -1 -2 -1 -2 -2 -2 -0 -2 -2 -2 -4 -3 0 -3 -3 -2 2
-0 0 -0 -0 -0 0 1 -0 -0 -0 -0 -1 -1 -1 -1 -1 -0 0 0 -0 -0 0 1 1 -0 -1 -1 -1 -2 -2 -1 0 -0 -2 -1 -1 -2 -3 -3 -2 -2 -4 -2 -1 1 -1 -0
-0 -0 0 0 -0 1 0 -0 -1 0 0 -1 -1 -1 -0 -0 -1 -1 -0 -0 0 0 0 -0 -0 -1 1 -8 -1 -1 -1 -1 -1 -2 -1 -2 -2 -5 -1 -2 -2 -1 -5 0 -1 1 -1
-1 0 0 -1 0 -0 -1 0 -0 -0 -1 -1 -0 -1 -1 -1 -1 -1 -1 -1 0 -1 -1 -0 -0 -1 -4 -1 -1 -2 -1 -2 -2 -2 -3 -1 -1 -1 -4 -4 -3 -3 -2 -3 2 -1 -2
-1 -0 -0 -0 2 1 -0 0 -1 -1 -1 -1 -1 -1 -2 -1 -1 -2 -1 -1 -1 -0 -0 -1 -1 0 -3 0 2 -1 -1 -3 -3 -2 -2 -1 -1 -2 -3 -3 -2 -2 -1 -1 -3 -2 -5
0 -0 -1 1 1 -0 -0 -1 -1 -1 -2 -1 -2 -1 -1 -0 -1 -1 -2 -1 -0 -0 -1 -2 -5 -0 -3 -1 -3 -3 -2 -1 -0 0 -0 -1 -1 -2 -2 -3 -5 -3 -3 -3 -3 -2 1
-1 -1 -1 -0 0 0 -0 -1 -0 -0 -1 -1 -1 -1 -0 -2 -2 -1 -1 -1 -0 0 -1 -3 -1 -1 -2 -1 -3 -4 -2 -2 -1 -2 -1 -0 -0 -3 -4 -3 -0 -1 -2 -2 2 -4 -6
-1 -1 -1 -0 0 -0 0 0 -1 -1 -1 -1 -2 -1 -2 -1 -2 -1 -0 -0 -0 3 -1 -2 -2 -2 -2 -1 -0 -2 1 -4 -1 -2 -1 -1 -2 -3 -1 -0 -3 -1 -3 -3 2 1 -4
-1 -1 -0 -0 0 0 0 -0 -1 -1 -0 -1 -1 -1 -1 -2 -2 -0 -1 -1 0 1 -1 -2 -1 0 -5 -1 -5 -4 -3 -1 -3 -3 -2 -2 -1 -2 -3 -2 2 1 -1 -5 -3 -3 -3
-1 -1 -0 -0 0 0 -0 -1 -1 -0 -1 -1 -1 -2 -1 -1 2 -2 -1 -1 -1 -1 -2 -1 -3 -4 -5 -4 -4 -3 -6 -4 -2 -5 -2 -1 -1 -1 -1 -0 -3 -4 -4 -3 -2 1 -2
-1 -0 0 0 -0 -0 -1 -1 -1 -1 -1 -2 -1 -1 -1 -2 -2 -2 -1 -1 -2 -1 -4 -1 -2 -0 -1 -4 -1 1 -2 -3 -2 0 -1 -1 -2 -1 -1 -2 -2 -2 -2 1 -1 -1 2
-0 -0 0 0 0 -0 0 -0 -1 -1 -1 -0 -1 -1 -2 0 -1 -1 -2 -2 -1 -2 -2 -1 -1 -1 -2 -1 -1 -0 -2 -2 -1 -4 -2 -2 -2 -3 -1 -3 -1 0 -4 -0 -1 -1 -1
-0 1 1 0 1 0 0 -0 0 -0 -0 -0 -1 -1 -1 -2 -2 -1 -2 -2 -2 -5 -2 -2 -3 -3 -1 -3 0 -1 -1 -1 -6 -12 -2 -2 -5 -2 -1 -0 -3 -3 -0 -5 -7 -3 -4
-0 0 1 -0 -0 0 -0 -0 -1 -1 -1 -1 -1 -1 -2 -2 -1 -1 -1 -1 -3 -0 -1 -1 -1 -0 -1 -2 0 -3 -1 -2 -2 -4 -5 -5 -16 1 -3 -1 1 -1 -5 -4 -1 -1 -4
-1 0 1 1 1 1 -1 -1 -1 -1 -0 -1 -1 -2 -2 -2 -2 -2 -2 -2 -1 -2 -2 -2 -2 -2 -3 -2 -3 -4 -3 -3 -1 1 -4 1 -7 -6 -0 -0 3 0 -1 0 0 -1 -2
-1 0 -0 -0 0 -0 -1 -0 -0 -1 -1 -1 -1 -1 -2 -3 -3 -3 -3 -2 -1 -1 -1 -1 -1 -1 -0 -3 -2 -2 -4 -1 -1 -1 0 -2 -10 -1 0 -3 -1 1 1 -3 0 -3 -3
-0 -0 -1 0 0 -1 -1 -0 0 -0 -1 -1 -1 -2 -1 -1 -2 -3 -1 -1 -2 -2 -2 -2 -2 -1 -0 -1 -1 -1 -1 -3 1 -1 -0 4 2 -5 3 2 3 1 -0 1 -0 -0 -3
1 -0 -0 -0 -1 -1 -2 -2 -2 -2 -2 -2 -1 -1 -2 -2 -4 -3 -2 -2 0 0 -1 -2 -2 0 1 0 -2 -1 1 2 2 2 -1 -1 0 -9 -0 2 -0 2 -2 2 -2 -2 -0
-0 -0 0 -0 -0 -1 -2 -2 -1 -1 -2 -2 -1 -1 0 -0 -1 -1 -1 0 -0 -0 1 0 2 2 2 0 -4 -1 -2 -1 0 -0 -1 -3 2 -10 0 -1 0 3 5 3 4 5 -7
-1 -1 -1 -1 0 -1 -1 -1 -1 -1 -1 -0 -2 -1 -2 1 1 1 0 -1 -3 -3 -2 -0 -0 -0 -1 -1 1 -3 1 -4 -1 -2 2 4 -1 -5 -8 -3 3 -6 8 7 6 2 -1
-0 0 0 -0 -0 0 0 -1 -1 -0 -1 -0 -1 -2 -3 -3 1 -0 -0 2 2 -1 2 2 -3 1 1 -1 -5 -5 -2 3 3 -1 1 5 -4 2 2 1 7 -8 6 7 -1 13 -3
0 -0 -1 -1 -1 -2 -2 -1 -1 -1 -0 -1 -1 -1 -2 -0 -1 -2 -1 -2 1 -1 2 -0 -0 -2 1 2 3 -1 1 6 -0 -1 2 -1 -7 -3 -18 4 3 -18 10 3 5 3 -14
0 -0 -1 -1 0 -0 -0 0 -0 -1 -1 -0 1 -1 -2 -1 -1 1 -0 -2 -2 1 -2 5 2 -1 -1 -0 1 1 3 3 6 2 7 -1 -0 0 -21 5 5 -2 4 7 3 1 7
1 1 0 -0 1 1 -1 -1 -1 -1 0 -0 1 0 -2 -8 3 3 -0 0 3 2 2 -2 2 1 -3 -1 -2 -3 0 -0 1 2 6 1 5 2 -16 -6 -4 -14 4 2 1 1 7
-1 -4 -2 -1 -0 -0 1 0 -2 -0 -1 -3 2 2 1 -9 -2 3 3 -1 4 1 5 -2 -1 -2 0 -1 -6 -8 -7 -2 -3 2 1 2 2 -1 -4 2 -20 -8 -3 2 3 -28 19
2 -1 -0 0 -3 -2 0 2 -0 -2 1 -4 2 0 2 2 -14 4 4 4 -3 4 2 2 -0 -2 -1 -3 1 -2 -4 -4 2 1 -2 1 0 2 1 5 -2 2 3 -2 -3 -28 10
1 4 2 -0 -2 1 -1 1 2 -1 -2 1 -11 7 5 3 -4 8 9 -1 3 4 5 -2 -0 -4 0 1 1 0 -5 0 -3 -1 0 1 -1 -7 4 -3 -27 5 8 3 1 -20 5
8 2 -2 -2 -1 -3 -1 -2 -1 1 -2 2 2 4 9 -5 1 -3 9 1 12 -0 5 2 5 -13 -3 -2 -3 2 1 3 2 2 -6 1 -2 -1 13 -1 -21 12 2 13 16 8 -4
-1 -3 -2 1 1 -1 -2 2 1 1 0 5 4 7 4 7 4 0 -2 -2 4 -1 5 -3 7 -1 0 1 1 4 2 2 3 -4 7 -13 -12 -3 4 -38 17 2 -2 21 8 -2 -2
Height
3185 3185 3186 3186 3186 3186 3186 3186 3186 3185 3185 3185 3184 3183 3181 3181 3180 3179 3178 3178 3177 3176 3176 3175 3173 3172 3170 3169 3168 3165 3163 3161 3160 3157 3156 3154 3153 3150 3148 3146 3145 3143 3141 3140 3138 3134 3130
3186 3187 3187 3188 3188 3188 3188 3188 3188 3187 3186 3186 3185 3184 3183 3182 3181 3180 3179 3178 3178 3177 3177 3176 3174 3172 3171 3171 3168 3165 3163 3161 3159 3157 3155 3154 3151 3150 3148 3146 3144 3142 3139 3137 3134 3131 3126
3188 3189 3189 3189 3189 3189 3190 3190 3189 3189 3188 3187 3186 3185 3184 3183 3182 3181 3179 3178 3178 3178 3178 3177 3175 3173 3173 3171 3168 3165 3163 3160 3158 3156 3154 3153 3151 3150 3148 3145 3143 3140 3138 3134 3131 3128 3125
3189 3190 3190 3191 3191 3191 3192 3191 3191 3191 3190 3189 3188 3187 3186 3185 3183 3182 3181 3180 3179 3179 3178 3177 3175 3174 3172 3170 3168 3165 3163 3160 3158 3156 3154 3152 3150 3149 3147 3144 3142 3139 3137 3133 3129 3125 3123
3190 3191 3191 3192 3193 3193 3193 3193 3193 3192 3191 3190 3189 3188 3187 3186 3184 3183 3182 3181 3180 3179 3179 3178 3177 3175 3173 3171 3169 3166 3163 3160 3156 3154 3151 3150 3150 3148 3147 3143 3141 3136 3132 3129 3127 3122 3119
3191 3191 3192 3193 3194 3194 3195 3195 3194 3193 3193 3192 3191 3189 3188 3187 3185 3184 3182 3181 3180 3180 3179 3178 3177 3177 3175 3172 3168 3165 3162 3158 3155 3152 3150 3150 3148 3147 3146 3141 3139 3133 3129 3126 3122 3119 3115
3192 3192 3193 3194 3195 3195 3196 3196 3195 3194 3194 3192 3191 3190 3189 3187 3186 3185 3183 3182 3183 3182 3180 3178 3178 3176 3174 3172 3169 3165 3162 3158 3155 3152 3149 3148 3149 3145 3143 3140 3137 3134 3130 3123 3119 3113 3109
3193 3194 3195 3195 3196 3196 3196 3196 3196 3195 3194 3193 3191 3190 3189 3188 3186 3185 3183 3182 3180 3182 3180 3179 3178 3176 3174 3171 3169 3165 3163 3160 3155 3151 3149 3149 3146 3145 3142 3138 3135 3131 3128 3122 3117 3111 3106
3195 3195 3196 3196 3196 3196 3197 3197 3196 3195 3194 3193 3192 3190 3189 3188 3186 3185 3182 3181 3179 3178 3180 3180 3178 3176 3174 3172 3169 3166 3163 3159 3155 3151 3149 3148 3147 3144 3141 3137 3133 3130 3126 3121 3114 3105 3102
3196 3196 3197 3197 3197 3197 3197 3197 3196 3195 3194 3193 3192 3190 3189 3188 3188 3184 3182 3180 3178 3177 3180 3182 3178 3176 3175 3171 3169 3165 3162 3160 3156 3153 3149 3148 3145 3143 3140 3136 3133 3127 3123 3117 3109 3105 3102
3196 3197 3197 3198 3198 3198 3197 3197 3196 3195 3194 3193 3192 3190 3189 3187 3186 3184 3183 3180 3178 3179 3180 3183 3179 3177 3174 3173 3170 3166 3162 3159 3155 3152 3152 3149 3144 3142 3140 3136 3130 3126 3118 3111 3105 3102 3099
3197 3198 3198 3198 3198 3198 3197 3197 3197 3196 3195 3193 3192 3191 3189 3188 3186 3184 3182 3181 3180 3182 3179 3181 3178 3176 3174 3172 3169 3165 3162 3159 3155 3152 3149 3147 3143 3141 3137 3133 3129 3123 3116 3107 3102 3099 3098
3197 3198 3198 3199 3199 3198 3198 3198 3197 3197 3195 3194 3192 3191 3189 3188 3187 3185 3183 3182 3183 3180 3183 3181 3177 3174 3172 3170 3167 3165 3162 3159 3156 3151 3148 3144 3142 3138 3135 3131 3127 3123 3117 3107 3105 3099 3094
3196 3197 3197 3198 3198 3198 3198 3197 3197 3196 3195 3193 3192 3190 3189 3188 3186 3185 3183 3183 3181 3182 3181 3179 3176 3173 3172 3169 3166 3163 3160 3157 3155 3153 3148 3144 3137 3136 3134 3130 3125 3120 3120 3121 3121 3109 3094
3195 3196 3197 3197 3198 3198 3197 3197 3196 3195 3194 3193 3191 3190 3188 3187 3185 3184 3184 3182 3182 3181 3180 3178 3175 3172 3171 3169 3167 3163 3159 3156 3154 3151 3151 3144 3138 3133 3129 3126 3125 3118 3119 3118 3113 3107 3105
3194 3195 3196 3196 3196 3196 3196 3196 3195 3194 3193 3192 3191 3189 3188 3187 3185 3184 3183 3182 3181 3180 3178 3177 3174 3172 3169 3167 3165 3162 3157 3156 3153 3151 3147 3144 3135 3128 3125 3124 3120 3118 3117 3113 3112 3111 3101
3192 3194 3194 3195 3195 3195 3195 3194 3194 3193 3192 3191 3190 3189 3187 3185 3184 3183 3182 3182 3180 3179 3177 3176 3173 3171 3169 3166 3163 3159 3157 3155 3150 3148 3144 3139 3137 3129 3122 3119 3116 3113 3112 3111 3111 3109 3106
3190 3191 3192 3192 3193 3192 3192 3192 3192 3191 3190 3190 3188 3187 3186 3184 3185 3182 3181 3180 3179 3177 3175 3173 3171 3168 3166 3164 3160 3158 3157 3154 3149 3145 3141 3138 3131 3124 3116 3112 3111 3108 3106 3106 3108 3104 3101
3187 3188 3189 3189 3189 3189 3189 3189 3189 3188 3187 3187 3186 3184 3183 3182 3181 3180 3179 3178 3176 3175 3173 3170 3169 3167 3165 3163 3161 3157 3154 3151 3147 3143 3139 3136 3129 3123 3112 3111 3108 3104 3099 3100 3099 3096 3086
3183 3184 3185 3185 3186 3186 3186 3186 3185 3185 3184 3184 3183 3182 3181 3179 3179 3178 3176 3175 3174 3173 3170 3169 3167 3165 3162 3160 3159 3154 3150 3146 3143 3138 3134 3129 3126 3127 3121 3113 3106 3100 3093 3092 3091 3088 3074
3179 3179 3180 3181 3181 3182 3182 3182 3182 3181 3180 3181 3179 3178 3178 3177 3176 3175 3174 3174 3171 3169 3167 3166 3163 3162 3160 3156 3153 3149 3146 3141 3137 3130 3127 3123 3116 3110 3105 3100 3094 3091 3086 3082 3076 3070 3067
3174 3175 3176 3178 3178 3179 3179 3179 3178 3177 3177 3177 3177 3176 3174 3173 3173 3173 3171 3170 3169 3167 3166 3162 3160 3158 3156 3152 3150 3144 3140 3137 3133 3125 3121 3116 3112 3102 3087 3086 3081 3077 3068 3067 3062 3059 3045
3170 3171 3172 3173 3174 3175 3175 3175 3174 3174 3173 3172 3172 3171 3170 3169 3169 3168 3167 3166 3165 3163 3161 3158 3155 3152 3151 3147 3143 3139 3134 3130 3125 3120 3114 3112 3108 3103 3085 3080 3072 3063 3058 3056 3050 3047 3040
3164 3166 3167 3168 3169 3169 3170 3170 3170 3169 3168 3168 3167 3166 3165 3163 3163 3163 3162 3161 3160 3157 3154 3153 3150 3146 3144 3140 3136 3131 3127 3121 3117 3112 3110 3107 3106 3104 3089 3081 3070 3061 3052 3049 3042 3036 3030
3159 3159 3161 3162 3163 3163 3164 3163 3163 3163 3163 3162 3161 3160 3157 3154 3156 3156 3155 3154 3153 3151 3147 3145 3143 3140 3137 3134 3128 3121 3118 3112 3107 3104 3102 3102 3102 3100 3094 3075 3060 3050 3049 3045 3036 3015 3021
3152 3153 3154 3155 3156 3156 3156 3156 3156 3156 3155 3154 3155 3153 3150 3146 3149 3150 3148 3147 3145 3142 3140 3138 3135 3134 3131 3127 3123 3116 3111 3107 3102 3099 3099 3099 3097 3096 3084 3076 3069 3048 3047 3041 3034 3017 3016
3143 3145 3147 3148 3149 3148 3148 3147 3147 3147 3148 3146 3147 3145 3140 3135 3139 3140 3139 3138 3137 3136 3132 3128 3127 3128 3126 3122 3116 3111 3104 3103 3099 3095 3094 3094 3091 3084 3074 3073 3051 3042 3040 3036 3032 3025 3014
3134 3135 3137 3137 3139 3139 3139 3139 3139 3138 3139 3138 3137 3136 3132 3127 3129 3130 3130 3131 3128 3129 3127 3121 3121 3120 3119 3117 3113 3107 3098 3095 3091 3090 3090 3092 3090 3075 3066 3064 3045 3038 3037 3036 3026 3014 3008
3127 3127 3127 3127 3127 3128 3128 3129 3130 3130 3130 3129 3128 3127 3124 3120 3118 3119 3120 3120 3121 3122 3120 3115 3116 3115 3115 3111 3105 3098 3095 3089 3087 3079 3078 3078 3077 3066 3059 3047 3039 3035 3030 3028 3018 3007 2998